When you browse on this site, cookies collect data to enhance your experience and personalize the content and advertising you see.
Visit our Privacy Policy to learn more. By continuing to use the site, you agree to this use of cookies and data.
  • en France
  • Liste des pays
  • À 7 jours
  • Température de l'eau
  • Carte météo
  • Widgets météo
  • user-avatar
    Se connecter

    Météo par heure à Cottbus

    Ce jour, 23 Janvier, Jeudi

    Heure Température Précipitation Vent Pression Humidité
    00:00 +1°C° 0 mm 2 m/s 769 mmHg 95%
    01:00 +1°C° 0 mm 2 m/s 770 mmHg 95%
    02:00 +1°C° 0 mm 2 m/s 769 mmHg 95%
    03:00 -1°C° 0 mm 2 m/s 769 mmHg 95%
    04:00 -1°C° 0 mm 2 m/s 769 mmHg 96%
    05:00 -1°C° 0 mm 2 m/s 769 mmHg 95%
    06:00 -1°C° 0 mm 2 m/s 769 mmHg 95%
    07:00 -1°C° 0 mm 2 m/s 769 mmHg 94%
    08:00 +1°C° 0 mm 2 m/s 769 mmHg 91%
    09:00 +2°C° 0 mm 2 m/s 769 mmHg 88%
    10:00 +2°C° 0 mm 2 m/s 769 mmHg 85%
    11:00 +3°C° 0 mm 2 m/s 768 mmHg 80%
    12:00 +4°C° 0 mm 2 m/s 768 mmHg 75%
    13:00 +5°C° 0 mm 2 m/s 768 mmHg 70%
    14:00 +4°C° 0 mm 2 m/s 767 mmHg 73%
    15:00 +4°C° 0 mm 2 m/s 767 mmHg 75%
    16:00 +4°C° 0 mm 1 m/s 766 mmHg 78%
    17:00 +3°C° 0 mm 1 m/s 766 mmHg 81%
    18:00 +2°C° 0 mm 1 m/s 766 mmHg 84%
    19:00 +2°C° 0 mm 1 m/s 766 mmHg 87%
    20:00 +1°C° 0 mm 1 m/s 765 mmHg 87%
    21:00 +1°C° 0 mm 1 m/s 765 mmHg 88%
    22:00 -1°C° 0 mm 2 m/s 765 mmHg 88%
    23:00 -1°C° 0 mm 2 m/s 764 mmHg 88%

    Demain, 24 Janvier, Vendredi

    Heure Température Précipitation Vent Pression Humidité
    00:00 -1°C° 0 mm 2 m/s 764 mmHg 88%
    01:00 +1°C° 0 mm 1 m/s 764 mmHg 88%
    02:00 -2°C° 0 mm 2 m/s 763 mmHg 87%
    03:00 -2°C° 0 mm 2 m/s 763 mmHg 86%
    04:00 -2°C° 0 mm 2 m/s 762 mmHg 85%
    05:00 -2°C° 0 mm 2 m/s 762 mmHg 84%
    06:00 -2°C° 0 mm 2 m/s 762 mmHg 83%
    07:00 -2°C° 0 mm 2 m/s 762 mmHg 82%
    08:00 -1°C° 0 mm 2 m/s 762 mmHg 78%
    09:00 0°C° 0 mm 3 m/s 762 mmHg 74%
    10:00 0°C° 0 mm 3 m/s 762 mmHg 70%
    11:00 +1°C° 0 mm 3 m/s 761 mmHg 66%
    12:00 +3°C° 0 mm 2 m/s 761 mmHg 61%
    13:00 +5°C° 0 mm 2 m/s 761 mmHg 56%
    14:00 +4°C° 0 mm 2 m/s 760 mmHg 60%
    15:00 +3°C° 0 mm 2 m/s 760 mmHg 63%
    16:00 +3°C° 0 mm 2 m/s 760 mmHg 67%
    17:00 +2°C° 0 mm 2 m/s 760 mmHg 72%
    18:00 +1°C° 0 mm 2 m/s 760 mmHg 77%
    19:00 -1°C° 0 mm 2 m/s 760 mmHg 83%
    20:00 -1°C° 0 mm 2 m/s 760 mmHg 83%
    21:00 -1°C° 0 mm 2 m/s 760 mmHg 84%
    22:00 -1°C° 0 mm 2 m/s 760 mmHg 85%
    23:00 -1°C° 0 mm 2 m/s 760 mmHg 85%

    Après-demain, 25 Janvier, Samedi

    Heure Température Précipitation Vent Pression Humidité
    00:00 -1°C° 0 mm 2 m/s 760 mmHg 85%
    01:00 -1°C° 0 mm 2 m/s 760 mmHg 86%
    02:00 -1°C° 0 mm 2 m/s 760 mmHg 85%
    03:00 -1°C° 0 mm 2 m/s 759 mmHg 84%
    04:00 +1°C° 0 mm 2 m/s 759 mmHg 84%
    05:00 +1°C° 0 mm 2 m/s 759 mmHg 82%
    06:00 +1°C° 0 mm 2 m/s 759 mmHg 81%
    07:00 +1°C° 0 mm 2 m/s 759 mmHg 80%
    08:00 +2°C° 0 mm 2 m/s 759 mmHg 78%
    09:00 +2°C° 0 mm 2 m/s 759 mmHg 76%
    10:00 +2°C° 0 mm 2 m/s 760 mmHg 74%
    11:00 +3°C° 0 mm 2 m/s 759 mmHg 72%
    12:00 +4°C° 0 mm 2 m/s 759 mmHg 71%
    13:00 +5°C° 0 mm 1 m/s 759 mmHg 69%
    14:00 +5°C° 0 mm 1 m/s 759 mmHg 72%
    15:00 +3°C° 0 mm 0 m/s 758 mmHg 75%
    16:00 +3°C° 0 mm 0 m/s 758 mmHg 78%
    17:00 +2°C° 0 mm 0 m/s 758 mmHg 80%
    18:00 +3°C° 0 mm 1 m/s 758 mmHg 81%
    19:00 +2°C° 0 mm 1 m/s 758 mmHg 83%
    20:00 +2°C° 0 mm 1 m/s 758 mmHg 83%
    21:00 +1°C° 0 mm 1 m/s 758 mmHg 82%
    22:00 +1°C° 0 mm 1 m/s 758 mmHg 82%
    23:00 -1°C° 0 mm 2 m/s 758 mmHg 81%

    26 Janvier, Dimanche

    Heure Température Précipitation Vent Pression Humidité
    00:00 -1°C° 0 mm 2 m/s 758 mmHg 81%
    01:00 -2°C° 0 mm 2 m/s 758 mmHg 81%
    02:00 -2°C° 0 mm 2 m/s 758 mmHg 81%
    03:00 -2°C° 0 mm 2 m/s 758 mmHg 81%
    04:00 -2°C° 0 mm 2 m/s 757 mmHg 82%
    05:00 -2°C° 0 mm 2 m/s 757 mmHg 82%
    06:00 -2°C° 0 mm 2 m/s 757 mmHg 82%
    07:00 -2°C° 0 mm 2 m/s 757 mmHg 82%
    08:00 -1°C° 0 mm 2 m/s 757 mmHg 78%
    09:00 +1°C° 0 mm 2 m/s 757 mmHg 74%
    10:00 +2°C° 0 mm 2 m/s 757 mmHg 71%
    11:00 +3°C° 0 mm 2 m/s 757 mmHg 69%
    12:00 +4°C° 0 mm 2 m/s 757 mmHg 68%
    13:00 +4°C° 0 mm 3 m/s 756 mmHg 66%
    14:00 +3°C° 0 mm 3 m/s 756 mmHg 71%
    15:00 +4°C° 0 mm 2 m/s 756 mmHg 75%
    16:00 +4°C° 0 mm 2 m/s 756 mmHg 80%
    17:00 +3°C° 0 mm 2 m/s 756 mmHg 83%
    18:00 +2°C° 0 mm 3 m/s 756 mmHg 87%
    19:00 +1°C° 0 mm 3 m/s 756 mmHg 90%
    20:00 +1°C° 0 mm 3 m/s 756 mmHg 90%
    21:00 +1°C° 0 mm 3 m/s 756 mmHg 91%
    22:00 +1°C° 0 mm 3 m/s 756 mmHg 91%
    23:00 +1°C° 0 mm 3 m/s 756 mmHg 91%

    27 Janvier, Lundi

    Heure Température Précipitation Vent Pression Humidité
    00:00 +1°C° 0 mm 3 m/s 756 mmHg 92%
    01:00 +1°C° 0 mm 3 m/s 756 mmHg 92%
    02:00 +2°C° 0 mm 3 m/s 756 mmHg 92%
    03:00 +1°C° 0 mm 4 m/s 755 mmHg 91%
    04:00 +1°C° 0 mm 4 m/s 755 mmHg 91%
    05:00 +3°C° 0 mm 4 m/s 755 mmHg 90%
    06:00 +3°C° 0 mm 4 m/s 755 mmHg 89%
    07:00 +3°C° 0 mm 4 m/s 755 mmHg 87%
    08:00 +4°C° 0.1 mm 4 m/s 755 mmHg 88%
    09:00 +3°C° 0.1 mm 5 m/s 755 mmHg 89%
    10:00 +5°C° 0.1 mm 5 m/s 756 mmHg 90%
    11:00 +6°C° 0 mm 5 m/s 756 mmHg 87%
    12:00 +6°C° 0 mm 5 m/s 756 mmHg 83%
    13:00 +7°C° 0 mm 5 m/s 756 mmHg 80%
    14:00 +6°C° 0 mm 4 m/s 756 mmHg 82%
    15:00 +7°C° 0 mm 3 m/s 756 mmHg 85%
    16:00 +6°C° 0 mm 2 m/s 756 mmHg 87%
    17:00 +6°C° 0 mm 2 m/s 756 mmHg 89%
    18:00 +5°C° 0 mm 2 m/s 756 mmHg 90%
    19:00 +4°C° 0 mm 3 m/s 755 mmHg 92%
    20:00 +4°C° 0 mm 3 m/s 755 mmHg 90%
    21:00 +4°C° 0 mm 3 m/s 755 mmHg 89%
    22:00 +4°C° 0 mm 4 m/s 755 mmHg 87%
    23:00 +4°C° 0 mm 4 m/s 754 mmHg 87%

    28 Janvier, Mardi

    Heure Température Précipitation Vent Pression Humidité
    00:00 +4°C° 0 mm 4 m/s 753 mmHg 87%
    01:00 +4°C° 0 mm 4 m/s 752 mmHg 86%
    02:00 +3°C° 0 mm 5 m/s 752 mmHg 83%
    03:00 +5°C° 0 mm 5 m/s 751 mmHg 80%
    04:00 +5°C° 0 mm 5 m/s 750 mmHg 77%
    05:00 +5°C° 0 mm 5 m/s 750 mmHg 73%
    06:00 +4°C° 0 mm 6 m/s 749 mmHg 69%
    07:00 +4°C° 0 mm 6 m/s 749 mmHg 65%
    08:00 +5°C° 0 mm 6 m/s 748 mmHg 63%
    09:00 +7°C° 0 mm 6 m/s 748 mmHg 61%
    10:00 +8°C° 0 mm 6 m/s 748 mmHg 59%
    11:00 +8°C° 0 mm 7 m/s 748 mmHg 59%
    12:00 +9°C° 0 mm 7 m/s 747 mmHg 59%
    13:00 +9°C° 0 mm 7 m/s 747 mmHg 59%
    14:00 +9°C° 0.2 mm 7 m/s 747 mmHg 65%
    15:00 +9°C° 0.2 mm 7 m/s 747 mmHg 71%
    16:00 +8°C° 0.2 mm 7 m/s 747 mmHg 76%
    17:00 +6°C° 0.1 mm 7 m/s 748 mmHg 74%
    18:00 +5°C° 0.1 mm 6 m/s 749 mmHg 72%
    19:00 +5°C° 0.1 mm 5 m/s 750 mmHg 70%
    20:00 +4°C° 0 mm 6 m/s 750 mmHg 69%
    21:00 +4°C° 0 mm 6 m/s 751 mmHg 69%
    22:00 +3°C° 0 mm 6 m/s 751 mmHg 68%
    23:00 +3°C° 0 mm 7 m/s 751 mmHg 67%
    Voir plus